When you browse on this site, cookies collect data to enhance your experience and personalize the content and advertising you see.
Visit our Privacy Policy to learn more. By continuing to use the site, you agree to this use of cookies and data.
  • In Österreich
  • Länderverzeichnis
  • Für 7 Tage
  • Wassertemperatur
  • Wetterkarte
  • News
  • Widgets
  • user-avatar
    Anmelden

    Stündliche Wetter Bamenda

    Heute, 29 Januar, Mittwoch

    Zeit Temperatur Niederschläge Wind Luftdruck Luftfeuchtigkeit
    00:00 +19°C° 0 mm 1 m/S 641 mmHg 38%
    01:00 +18°C° 0 mm 1 m/S 640 mmHg 40%
    02:00 +18°C° 0 mm 1 m/S 640 mmHg 36%
    03:00 +16°C° 0 mm 1 m/S 640 mmHg 33%
    04:00 +16°C° 0 mm 1 m/S 640 mmHg 30%
    05:00 +16°C° 0 mm 1 m/S 640 mmHg 29%
    06:00 +16°C° 0 mm 1 m/S 640 mmHg 28%
    07:00 +18°C° 0 mm 1 m/S 641 mmHg 26%
    08:00 +22°C° 0 mm 1 m/S 642 mmHg 23%
    09:00 +26°C° 0 mm 1 m/S 644 mmHg 19%
    10:00 +30°C° 0 mm 1 m/S 645 mmHg 16%
    11:00 +31°C° 0 mm 1 m/S 645 mmHg 15%
    12:00 +33°C° 0 mm 1 m/S 645 mmHg 14%
    13:00 +34°C° 0 mm 1 m/S 644 mmHg 12%
    14:00 +35°C° 0 mm 2 m/S 644 mmHg 13%
    15:00 +34°C° 0 mm 2 m/S 643 mmHg 13%
    16:00 +34°C° 0 mm 2 m/S 642 mmHg 14%
    17:00 +29°C° 0 mm 2 m/S 641 mmHg 18%
    18:00 +26°C° 0 mm 1 m/S 641 mmHg 23%
    19:00 +23°C° 0 mm 1 m/S 640 mmHg 28%
    20:00 +22°C° 0 mm 1 m/S 640 mmHg 28%
    21:00 +21°C° 0 mm 1 m/S 641 mmHg 28%
    22:00 +20°C° 0 mm 1 m/S 641 mmHg 28%
    23:00 +20°C° 0 mm 1 m/S 641 mmHg 28%

    Morgen, 30 Januar, Donnerstag

    Zeit Temperatur Niederschläge Wind Luftdruck Luftfeuchtigkeit
    00:00 +19°C° 0 mm 1 m/S 641 mmHg 28%
    01:00 +19°C° 0 mm 1 m/S 641 mmHg 28%
    02:00 +19°C° 0 mm 1 m/S 641 mmHg 27%
    03:00 +18°C° 0 mm 1 m/S 640 mmHg 26%
    04:00 +18°C° 0 mm 1 m/S 640 mmHg 25%
    05:00 +18°C° 0 mm 1 m/S 640 mmHg 25%
    06:00 +18°C° 0 mm 1 m/S 641 mmHg 25%
    07:00 +16°C° 0 mm 0 m/S 641 mmHg 25%
    08:00 +22°C° 0 mm 1 m/S 643 mmHg 22%
    09:00 +26°C° 0 mm 1 m/S 645 mmHg 18%
    10:00 +31°C° 0 mm 1 m/S 646 mmHg 14%
    11:00 +32°C° 0 mm 1 m/S 646 mmHg 14%
    12:00 +33°C° 0 mm 1 m/S 646 mmHg 14%
    13:00 +34°C° 0 mm 1 m/S 645 mmHg 13%
    14:00 +34°C° 0 mm 2 m/S 644 mmHg 14%
    15:00 +34°C° 0 mm 2 m/S 643 mmHg 15%
    16:00 +32°C° 0 mm 2 m/S 642 mmHg 16%
    17:00 +29°C° 0 mm 2 m/S 642 mmHg 20%
    18:00 +26°C° 0 mm 2 m/S 641 mmHg 24%
    19:00 +22°C° 0 mm 1 m/S 641 mmHg 28%
    20:00 +22°C° 0 mm 1 m/S 641 mmHg 27%
    21:00 +21°C° 0 mm 1 m/S 641 mmHg 27%
    22:00 +20°C° 0 mm 1 m/S 642 mmHg 26%
    23:00 +19°C° 0 mm 1 m/S 642 mmHg 25%

    übermorgen, 31 Januar, Freitag

    Zeit Temperatur Niederschläge Wind Luftdruck Luftfeuchtigkeit
    00:00 +19°C° 0 mm 1 m/S 641 mmHg 24%
    01:00 +18°C° 0 mm 1 m/S 641 mmHg 23%
    02:00 +18°C° 0 mm 1 m/S 641 mmHg 22%
    03:00 +18°C° 0 mm 1 m/S 641 mmHg 20%
    04:00 +18°C° 0 mm 1 m/S 640 mmHg 19%
    05:00 +18°C° 0 mm 1 m/S 641 mmHg 19%
    06:00 +18°C° 0 mm 1 m/S 641 mmHg 19%
    07:00 +18°C° 0 mm 1 m/S 641 mmHg 19%
    08:00 +22°C° 0 mm 1 m/S 643 mmHg 17%
    09:00 +26°C° 0 mm 1 m/S 644 mmHg 15%
    10:00 +29°C° 0 mm 1 m/S 646 mmHg 14%
    11:00 +31°C° 0 mm 1 m/S 645 mmHg 14%
    12:00 +32°C° 0 mm 1 m/S 645 mmHg 13%
    13:00 +33°C° 0 mm 1 m/S 645 mmHg 13%
    14:00 +32°C° 0 mm 2 m/S 644 mmHg 14%
    15:00 +32°C° 0 mm 2 m/S 643 mmHg 15%
    16:00 +31°C° 0 mm 2 m/S 642 mmHg 17%
    17:00 +28°C° 0 mm 2 m/S 642 mmHg 22%
    18:00 +25°C° 0 mm 1 m/S 641 mmHg 27%
    19:00 +22°C° 0 mm 1 m/S 640 mmHg 32%
    20:00 +21°C° 0 mm 1 m/S 641 mmHg 32%
    21:00 +20°C° 0 mm 1 m/S 641 mmHg 31%
    22:00 +19°C° 0 mm 1 m/S 641 mmHg 30%
    23:00 +19°C° 0 mm 1 m/S 641 mmHg 27%

    1 Februar, Samstag

    Zeit Temperatur Niederschläge Wind Luftdruck Luftfeuchtigkeit
    00:00 +19°C° 0 mm 1 m/S 641 mmHg 24%
    01:00 +18°C° 0 mm 1 m/S 641 mmHg 21%
    02:00 +18°C° 0 mm 1 m/S 640 mmHg 21%
    03:00 +18°C° 0 mm 1 m/S 640 mmHg 20%
    04:00 +16°C° 0 mm 1 m/S 639 mmHg 19%
    05:00 +16°C° 0 mm 1 m/S 640 mmHg 19%
    06:00 +16°C° 0 mm 1 m/S 640 mmHg 19%
    07:00 +16°C° 0 mm 1 m/S 641 mmHg 19%
    08:00 +21°C° 0 mm 1 m/S 643 mmHg 16%
    09:00 +25°C° 0 mm 1 m/S 644 mmHg 14%
    10:00 +29°C° 0 mm 1 m/S 645 mmHg 11%
    11:00 +30°C° 0 mm 1 m/S 645 mmHg 11%
    12:00 +32°C° 0 mm 1 m/S 645 mmHg 11%
    13:00 +34°C° 0 mm 2 m/S 645 mmHg 11%
    14:00 +32°C° 0 mm 2 m/S 644 mmHg 12%
    15:00 +32°C° 0 mm 2 m/S 643 mmHg 13%
    16:00 +32°C° 0 mm 2 m/S 642 mmHg 14%
    17:00 +28°C° 0 mm 2 m/S 641 mmHg 20%
    18:00 +25°C° 0 mm 1 m/S 641 mmHg 25%
    19:00 +22°C° 0 mm 1 m/S 640 mmHg 30%
    20:00 +21°C° 0 mm 1 m/S 640 mmHg 31%
    21:00 +20°C° 0 mm 1 m/S 640 mmHg 32%
    22:00 +19°C° 0 mm 1 m/S 641 mmHg 33%
    23:00 +19°C° 0 mm 1 m/S 640 mmHg 31%

    2 Februar, Sonntag

    Zeit Temperatur Niederschläge Wind Luftdruck Luftfeuchtigkeit
    00:00 +18°C° 0 mm 1 m/S 640 mmHg 29%
    01:00 +18°C° 0 mm 1 m/S 640 mmHg 27%
    02:00 +18°C° 0 mm 1 m/S 640 mmHg 25%
    03:00 +16°C° 0 mm 1 m/S 640 mmHg 24%
    04:00 +16°C° 0 mm 1 m/S 639 mmHg 22%
    05:00 +16°C° 0 mm 1 m/S 640 mmHg 22%
    06:00 +16°C° 0 mm 1 m/S 640 mmHg 22%
    07:00 +16°C° 0 mm 1 m/S 641 mmHg 22%
    08:00 +21°C° 0 mm 1 m/S 642 mmHg 19%
    09:00 +25°C° 0 mm 1 m/S 644 mmHg 16%
    10:00 +29°C° 0 mm 1 m/S 645 mmHg 14%
    11:00 +30°C° 0 mm 1 m/S 645 mmHg 13%
    12:00 +32°C° 0 mm 1 m/S 644 mmHg 13%
    13:00 +34°C° 0 mm 2 m/S 644 mmHg 13%
    14:00 +32°C° 0 mm 2 m/S 643 mmHg 14%
    15:00 +32°C° 0 mm 2 m/S 643 mmHg 15%
    16:00 +31°C° 0 mm 2 m/S 642 mmHg 16%
    17:00 +28°C° 0 mm 2 m/S 641 mmHg 21%
    18:00 +25°C° 0 mm 1 m/S 641 mmHg 26%
    19:00 +22°C° 0 mm 1 m/S 640 mmHg 31%
    20:00 +21°C° 0 mm 1 m/S 640 mmHg 33%
    21:00 +20°C° 0 mm 1 m/S 641 mmHg 35%
    22:00 +19°C° 0 mm 1 m/S 641 mmHg 37%
    23:00 +19°C° 0 mm 1 m/S 641 mmHg 35%

    3 Februar, Montag

    Zeit Temperatur Niederschläge Wind Luftdruck Luftfeuchtigkeit
    00:00 +18°C° 0 mm 1 m/S 641 mmHg 34%
    01:00 +18°C° 0 mm 1 m/S 640 mmHg 32%
    02:00 +18°C° 0 mm 1 m/S 640 mmHg 30%
    03:00 +18°C° 0 mm 1 m/S 640 mmHg 28%
    04:00 +16°C° 0 mm 1 m/S 640 mmHg 26%
    05:00 +16°C° 0 mm 1 m/S 640 mmHg 26%
    06:00 +16°C° 0 mm 1 m/S 641 mmHg 25%
    07:00 +15°C° 0 mm 0 m/S 641 mmHg 24%
    08:00 +21°C° 0 mm 1 m/S 643 mmHg 21%
    09:00 +24°C° 0 mm 1 m/S 644 mmHg 18%
    10:00 +28°C° 0 mm 1 m/S 645 mmHg 14%
    11:00 +29°C° 0 mm 1 m/S 645 mmHg 14%
    12:00 +31°C° 0 mm 1 m/S 645 mmHg 13%
    13:00 +32°C° 0 mm 2 m/S 645 mmHg 12%
    14:00 +32°C° 0 mm 2 m/S 644 mmHg 13%
    15:00 +31°C° 0 mm 2 m/S 643 mmHg 14%
    16:00 +31°C° 0 mm 2 m/S 642 mmHg 15%
    17:00 +28°C° 0 mm 2 m/S 641 mmHg 21%
    18:00 +25°C° 0 mm 1 m/S 641 mmHg 26%
    19:00 +21°C° 0 mm 1 m/S 640 mmHg 32%
    20:00 +21°C° 0 mm 1 m/S 640 mmHg 32%
    21:00 +20°C° 0 mm 1 m/S 640 mmHg 32%
    22:00 +19°C° 0 mm 1 m/S 641 mmHg 32%
    23:00 +18°C° 0 mm 1 m/S 641 mmHg 30%
    Mehr zeigen